Regional Weather Roundup
Issued by NWS Goodland, KS

Home | Current Version | Previous Version | Text Only | Print | Product List | Glossary Off
Versions: 1 2 3 4 5 6 7 8 9 10 11 12 13 14 15 16 17 18 19 20 21 22 23 24 25 26 27 28 29 30 31 32 33 34 35 36 37 38 39 40 41 42 43 44 45 46 47 48 49 50

000
ASUS43 KGLD 241259
RWRGLD

GOODLAND FORECAST AREA HOURLY WEATHER ROUNDUP
NATIONAL WEATHER SERVICE GOODLAND KS
700 AM MDT FRI OCT 24 2014

...OFFICIAL OBSERVATIONS...

CITY           SKY/WX    TMP DP  RH WIND       PRES   REMARKS
GOODLAND KS    MOCLDY    50  42  74 W10       30.07S
HILL CITY KS   MOCLDY    51  50  96 W6        30.00F FOG
IMPERIAL NEB   MOCLDY    50  37  61 W5        30.02R
MCCOOK NEB     CLOUDY    49  46  90 W8        30.00S
AKRON CO       MOCLDY    54  32  43 W13       30.10R
BURLINGTON CO  CLEAR     47  38  71 W10       30.09S
LIMON CO       MOCLDY    47  30  51 N5        30.17R
$$

...UNOFFICIAL OBSERVATIONS...

CITY           SKY/WX    TMP DP  RH WIND       PRES   REMARKS
COLBY KS       CLEAR     48  48 100 SW7       30.04S
NORTON KS      CLEAR     50  48  93 W6        29.98S FOG
SHARON SPRINGS   N/A     50  47  88 W7          N/A
KIT CARSON CO    N/A     39  36  89 CALM        N/A
YUMA CO          N/A     52  35  52 W7          N/A
$$



USA.gov is the U.S. government's official web portal to all federal, state and local government web resources and services.